Socorro, NM

7:42 AM MDT on April 25, 2018 (GMT -0600)
Socorro Municipal

Weather History for KONM - December, 2012

Change the Weather History Date:

Friday, December 7, 2012

  Actual Average Record
Temperature  
Mean Temperature 52 °F -  
Max Temperature 67 °F 55 °F 67 °F (2012)
Min Temperature 36 °F 23 °F 3 °F (2011)
Degree Days  
Heating Degree Days 14    
Growing Degree Days 2 (Base 50)    
Moisture  
Dew Point 21 °F    
Average Humidity 31    
Maximum Humidity 47    
Minimum Humidity 18    
Precipitation  
Precipitation 0.00 in - - ()
Sea Level Pressure  
Sea Level Pressure 29.93 in    
Wind  
Wind Speed 5 mph (WNW)    
Max Wind Speed 18 mph    
Max Gust Speed 22 mph    
Visibility 10 miles    
Events      
Averages and records for this station are not official NWS values.
T = Trace of Precipitation, MM = Missing Value Source: NWS Daily Summary

Daily Weather History Graph

Daily Weather History Graph

Search for Another Location

Airport or City:

Astronomy

Dec. 07, 2012 Rise Set
Actual Time 7:00 AM MST 4:58 PM MST
Civil Twilight 6:32 AM MST 5:25 PM MST
Nautical Twilight 6:01 AM MST 5:57 PM MST
Astronomical Twilight 5:31 AM MST 6:27 PM MST
Moon 12:37 AM MST (12/7) 12:43 PM MST (12/7)
Length of Visible Light 10h 53m
Length of Day
9h 57m
Last Quarter, 38% of the Moon is Illuminated
Dec 7
Last Quarter
Dec 13
New
Dec 19
First Quarter
Dec 28
Full
Jan 4
Last Quarter

Hourly Weather History & Observations

Time (MST) Temp. Windchill Dew Point Humidity Pressure Visibility Wind Dir Wind Speed Gust Speed Precip Events Conditions
12:15 AM 44.2 °F - 18.0 °F 35% 29.93 in 10.0 mi Calm Calm - N/A   Clear
12:35 AM 43.2 °F - 16.9 °F 35% 29.93 in 10.0 mi Calm Calm - N/A   Clear
12:55 AM 45.0 °F 43.5 °F 17.1 °F 33% 29.93 in 10.0 mi SSE 3.5 mph - N/A   Clear
1:15 AM 43.2 °F 41.5 °F 17.2 °F 35% 29.93 in 10.0 mi West 3.5 mph - N/A   Scattered Clouds
1:35 AM 42.8 °F 41.1 °F 17.4 °F 36% 29.93 in 10.0 mi SSW 3.5 mph - N/A   Scattered Clouds
1:55 AM 42.1 °F 39.2 °F 18.0 °F 38% 29.94 in 10.0 mi SSW 4.6 mph - N/A   Clear
2:15 AM 43.0 °F 38.8 °F 18.5 °F 37% 29.94 in 10.0 mi SSW 6.9 mph - N/A   Clear
2:35 AM 45.0 °F 40.1 °F 18.1 °F 34% 29.94 in 10.0 mi SW 9.2 mph - N/A   Clear
2:55 AM 44.2 °F - 17.4 °F 34% 29.94 in 10.0 mi Calm Calm - N/A   Mostly Cloudy
3:15 AM 39.7 °F - 18.0 °F 42% 29.94 in 10.0 mi Calm Calm - N/A   Mostly Cloudy
3:35 AM 41.0 °F - 18.1 °F 40% 29.94 in 10.0 mi Calm Calm - N/A   Scattered Clouds
3:55 AM 40.8 °F - 17.2 °F 39% 29.94 in 10.0 mi Calm Calm - N/A   Scattered Clouds
4:15 AM 38.8 °F 36.5 °F 17.8 °F 43% 29.94 in 10.0 mi WNW 3.5 mph - N/A   Mostly Cloudy
4:35 AM 37.9 °F 32.7 °F 18.3 °F 45% 29.94 in 10.0 mi NNW 6.9 mph - N/A   Overcast
4:55 AM 37.9 °F 35.5 °F 18.5 °F 46% 29.94 in 10.0 mi NNW 3.5 mph - N/A   Overcast
5:15 AM 37.6 °F - 18.1 °F 45% 29.94 in 10.0 mi Calm Calm - N/A   Mostly Cloudy
5:35 AM 36.5 °F - 18.0 °F 47% 29.94 in 10.0 mi Calm Calm - N/A   Scattered Clouds
5:55 AM 37.2 °F - 18.0 °F 46% 29.95 in 10.0 mi Calm Calm - N/A   Scattered Clouds
6:15 AM 41.4 °F - 18.5 °F 40% 29.96 in 10.0 mi Calm Calm - N/A   Clear
6:35 AM 39.4 °F - 18.1 °F 42% 29.96 in 10.0 mi Calm Calm - N/A   Clear
6:55 AM 38.5 °F 35.0 °F 18.0 °F 44% 29.96 in 10.0 mi South 4.6 mph - N/A   Clear
7:15 AM 39.2 °F 37.0 °F 18.0 °F 42% 29.96 in 10.0 mi South 3.5 mph - N/A   Clear
7:35 AM 38.7 °F - 18.1 °F 44% 29.97 in 10.0 mi Calm Calm - N/A   Clear
7:55 AM 37.9 °F 35.5 °F 18.3 °F 45% 29.98 in 10.0 mi SSE 3.5 mph - N/A   Clear
8:15 AM 42.1 °F - 18.1 °F 38% 29.99 in 10.0 mi Calm Calm - N/A   Clear
8:35 AM 45.3 °F - 18.5 °F 34% 29.99 in 10.0 mi Calm Calm - N/A   Clear
8:55 AM 48.4 °F - 21.6 °F 35% 29.99 in 10.0 mi Calm Calm - N/A   Clear
9:15 AM 48.6 °F - 20.1 °F 33% 29.99 in 10.0 mi ESE 4.6 mph - N/A   Clear
9:35 AM 48.9 °F - 19.4 °F 31% 29.99 in 10.0 mi ESE 3.5 mph - N/A   Clear
9:55 AM 52.0 °F - 21.2 °F 30% 29.99 in 10.0 mi Calm Calm - N/A   Clear
10:15 AM 55.8 °F - 22.6 °F 28% 29.98 in 10.0 mi ESE 3.5 mph - N/A   Clear
10:35 AM 57.2 °F - 23.5 °F 27% 29.97 in 10.0 mi SE 4.6 mph - N/A   Clear
10:55 AM 60.1 °F - 26.4 °F 28% 29.96 in 10.0 mi NNE 3.5 mph - N/A   Clear
11:15 AM 62.6 °F - 27.1 °F 26% 29.95 in 10.0 mi WNW 15.0 mph 18.4 mph N/A   Clear
11:35 AM 64.2 °F - 27.0 °F 24% 29.94 in 10.0 mi WNW 12.7 mph 21.9 mph N/A   Clear
11:55 AM 65.1 °F - 26.4 °F 23% 29.93 in 10.0 mi NW 12.7 mph 21.9 mph N/A   Clear
12:15 PM 66.0 °F - 24.6 °F 21% 29.92 in 10.0 mi WNW 15.0 mph 21.9 mph N/A   Clear
12:35 PM 65.8 °F - 25.0 °F 21% 29.91 in 10.0 mi NW 13.8 mph 19.6 mph N/A   Clear
12:55 PM 66.4 °F - 24.3 °F 20% 29.90 in 10.0 mi NW 12.7 mph 20.7 mph N/A   Clear
1:15 PM 66.4 °F - 24.1 °F 20% 29.89 in 10.0 mi NW 18.4 mph - N/A   Clear
1:35 PM 66.9 °F - 23.4 °F 19% 29.89 in 10.0 mi NW 16.1 mph 21.9 mph N/A   Clear
1:55 PM 67.1 °F - 22.5 °F 18% 29.88 in 10.0 mi NW 13.8 mph - N/A   Clear
2:15 PM 67.1 °F - 22.3 °F 18% 29.88 in 10.0 mi NW 12.7 mph 16.1 mph N/A   Clear
2:35 PM 66.9 °F - 22.8 °F 19% 29.87 in 10.0 mi North 4.6 mph - N/A   Clear
2:55 PM 66.2 °F - 22.8 °F 19% 29.87 in 10.0 mi Calm Calm - N/A   Clear
3:15 PM 67.6 °F - 22.1 °F 18% 29.87 in 10.0 mi NW 8.1 mph 16.1 mph N/A   Clear
3:35 PM 67.3 °F - 22.3 °F 18% 29.87 in 10.0 mi West 8.1 mph - N/A   Clear
3:55 PM 67.1 °F - 21.7 °F 18% 29.88 in 10.0 mi West 6.9 mph 19.6 mph N/A   Clear
4:15 PM 65.7 °F - 22.5 °F 19% 29.88 in 10.0 mi Calm Calm - N/A   Clear
4:35 PM 64.2 °F - 20.8 °F 19% 29.89 in 10.0 mi NW 6.9 mph - N/A   Clear
4:55 PM 60.3 °F - 22.1 °F 23% 29.89 in 10.0 mi Calm Calm - N/A   Clear
5:15 PM 57.9 °F - 20.8 °F 24% 29.90 in 10.0 mi NW 6.9 mph - N/A   Clear
5:35 PM 55.6 °F - 22.1 °F 27% 29.91 in 10.0 mi NW 6.9 mph - N/A   Clear
6:15 PM 56.3 °F - 23.0 °F 28% 29.92 in 10.0 mi WNW 10.4 mph - N/A   Clear
6:35 PM 57.2 °F - 22.8 °F 27% 29.92 in 10.0 mi WNW 12.7 mph - N/A   Clear
6:55 PM 56.7 °F - 22.6 °F 27% 29.92 in 10.0 mi WNW 10.4 mph - N/A   Clear
7:35 PM 56.5 °F - 23.2 °F 28% 29.94 in 10.0 mi WNW 12.7 mph - N/A   Clear
7:55 PM 55.8 °F - 23.9 °F 29% 29.94 in 10.0 mi NW 13.8 mph - N/A   Clear
8:15 PM 56.5 °F - 25.2 °F 30% 29.93 in 10.0 mi WNW 17.3 mph 21.9 mph N/A   Clear
8:35 PM 56.8 °F - 25.3 °F 30% 29.93 in 10.0 mi WNW 15.0 mph - N/A   Clear
8:55 PM 56.1 °F - 23.7 °F 29% 29.94 in 10.0 mi WNW 11.5 mph 19.6 mph N/A   Clear
9:15 PM 55.9 °F - 23.0 °F 28% 29.94 in 10.0 mi NW 12.7 mph - N/A   Clear
9:35 PM 55.4 °F - 21.2 °F 26% 29.94 in 10.0 mi WNW 16.1 mph - N/A   Clear
9:55 PM 55.8 °F - 21.6 °F 27% 29.94 in 10.0 mi NW 9.2 mph 12.7 mph N/A   Clear
10:15 PM 54.9 °F - 22.3 °F 28% 29.94 in 10.0 mi NW 13.8 mph - N/A   Clear
10:35 PM 54.3 °F - 22.8 °F 29% 29.95 in 10.0 mi NW 15.0 mph - N/A   Clear
10:55 PM 54.3 °F - 23.0 °F 30% 29.95 in 10.0 mi NW 12.7 mph - N/A   Clear
11:15 PM 47.3 °F - 22.8 °F 38% 29.96 in 10.0 mi Calm Calm - N/A   Clear
11:35 PM 48.9 °F - 23.4 °F 37% 29.96 in 10.0 mi NNE 10.4 mph - N/A   Clear
11:55 PM 46.9 °F - 23.9 °F 40% 29.96 in 10.0 mi NNE 13.8 mph - N/A   Clear